Find Starlink 34945

NORAD ID: 65185 Int'l Des: 2025-175 Owner: SPXS Country: US Constellation: starlink operational
LEOCIRCULARRETROGRADESSO

Current View

Loading 3D Globe...

About Starlink 34945

Description loading...

Upcoming Passes

Passes for default location (London). Set your location on the main map for personalized predictions.

Altitude History

Loading altitude history...

Two-Line Element Set

1 65185U 25175M 26146.60237696 -.00021702 00000-0 -15062-2 0 9993
2 65185 97.4451 19.0419 0002175 70.9995 289.1468 15.05610437 44362
Epoch: May 26, 2026 • Age: 5 hours

Current Status

Altitude 555.5 km
Velocity 7.58 km/s
Sub-Earth Point -14.06°S, 150.97°W
Launch Date Aug 14, 2025
Age 0.7 years
Type internet

Technical Details

Classification Payload
Mass 575.00 kg
Dry Mass 530.00 kg
Total Mass 575.00 kg
Length 0.30 m
Diameter 4.10 m
Span 29.00 m
Shape Box + pan
Manufacturer SPXS
Bus Type Starlink V2MO
Phase Status In Orbit
Owner/State SPXS/US

Most Searched